Home > Weather > Churchill > Past weeks

Flag for Canada Past Weather in Churchill, Manitoba, Canada — Yesterday and Last 2 Weeks

Now
46 °F

Partly sunny.


Feels Like: 43 °F
Forecast: 38 / 48 °F
Wind: 7 mph from East

Location: Churchill

Current Time: Jun 25, 2016 at 7:23:57 AM

Latest Report: Jun 25, 2016 at 7:00 AM


Visibility: 15 mi

Pressure: 29.99 "Hg

Humidity: 87%

Dew Point: 43 °F

Location of ChurchillLocation

Past Weather in Churchill — Graph

°F

Churchill Temperature Yesterday

Maximum temperature yesterday: 55 °F (at 3:00 PM)
Minimum temperature yesterday: 41 °F (at 2:00 AM)
Average temperature yesterday: 48 °F

High & Low Weather Summary for the Past Weeks

 TemperatureHumidityPressure
High75 °F (Jun 17, 10:00 AM)100% (Jun 10, 12:00 PM)30.21 "Hg (Jun 10, 12:00 PM)
Low28 °F (Jun 11, 4:00 AM)30% (Jun 11, 1:00 PM)29.42 "Hg (Jun 17, 6:00 PM)
Average51 °F74%29.83 "Hg
* Reported Jun 10 6:00 AM — Jun 25 6:00 AM, Churchill, Weather by CustomWeather, © 2016

Note: Actual official high and low records may vary slightly from our data, if they occured in-between our weather recording intervals... More about our weather records

Advertising

Churchill Weather History for the Previous 24 Hours

Scroll right to see more
 ConditionsComfort  
Time TempWeatherWind HumidityBarometerVisibility
6:00 AM
Sat, Jun 25
45 °FPartly sunny.6 mph87%29.98 "Hg15 mi
5:00 AM43 °FPassing clouds.6 mph93%29.98 "Hg15 mi
4:00 AM43 °FPassing clouds.6 mph87%29.99 "Hg15 mi
3:00 AM43 °FPassing clouds.5 mph93%29.98 "Hg15 mi
2:00 AM45 °FPassing clouds.6 mph87%29.98 "Hg15 mi
1:00 AM46 °FPassing clouds.8 mph82%29.98 "Hg15 mi
12:00 AM48 °FPassing clouds.7 mph82%29.97 "Hg15 mi
11:00 PM
Fri, Jun 24
50 °FPartly sunny.7 mph76%29.98 "Hg15 mi
10:00 PM52 °FPartly sunny.8 mph72%29.97 "Hg15 mi
9:00 PM52 °FPartly sunny.7 mph77%29.96 "Hg15 mi
8:00 PM52 °FPartly sunny.9 mph67%29.96 "Hg15 mi
7:00 PM52 °FScattered clouds.12 mph67%29.96 "Hg15 mi
6:00 PM54 °FScattered clouds.12 mph72%29.96 "Hg15 mi
5:00 PM55 °FScattered clouds.12 mph63%29.97 "Hg15 mi
4:00 PM54 °FScattered clouds.14 mph67%29.96 "Hg15 mi
3:00 PM55 °FScattered clouds.14 mph63%29.96 "Hg15 mi
2:00 PM52 °FScattered clouds.12 mph67%29.96 "Hg15 mi
1:00 PM54 °FPassing clouds.7 mph67%29.96 "Hg15 mi
12:00 PM52 °FPassing clouds.9 mph77%29.96 "Hg15 mi
11:00 AM50 °FScattered clouds.9 mph76%29.97 "Hg15 mi
10:00 AM46 °FScattered clouds.10 mph87%29.95 "Hg15 mi
9:04 AM41 °FFog.8 mph100%29.96 "Hg1 mi
8:00 AM41 °FFog.10 mph100%29.95 "Hg0 mi
7:00 AM43 °FFog.9 mph93%29.93 "Hg3 mi
Weather by CustomWeather, © 2016

See weather overviewHow to use our weather pages